| time (UTC) | temp F | wind direction | speed MPH | gust MPH | rain 1hr in | rain 24hr in | rain mn in | humidity % | barometer mb |
| 20260906231534 | 83 | 224 | 14.0 | 20.0 | 0.00 | 0.00 | 0.00 | 28 | 1020.4 |
| 20260906231020 | 83 | 255 | 12.0 | 20.0 | 0.00 | 0.00 | 0.00 | 27 | 1020.6 |
| 20260906230521 | 82 | 229 | 15.0 | 19.0 | 0.00 | 0.00 | 0.00 | 28 | 1020.6 |
| 20260906230043 | 82 | 214 | 13.0 | 19.0 | 0.00 | 0.00 | 0.00 | 28 | 1020.6 |
| 20260906225516 | 83 | 219 | 9.0 | 17.0 | 0.00 | 0.00 | 0.00 | 29 | 1020.6 |
| 20260906225024 | 82 | 274 | 12.0 | 22.0 | 0.00 | 0.00 | 0.00 | 30 | 1020.6 |
| 20260906224536 | 82 | 241 | 13.0 | 22.0 | 0.00 | 0.00 | 0.00 | 31 | 1020.8 |
| 20260906224020 | 82 | 235 | 14.0 | 19.0 | 0.00 | 0.00 | 0.00 | 30 | 1020.6 |
| 20260906223521 | 82 | 227 | 13.0 | 22.0 | 0.00 | 0.00 | 0.00 | 29 | 1020.8 |
| 20260906223044 | 82 | 205 | 15.0 | 22.0 | 0.00 | 0.00 | 0.00 | 30 | 1020.8 |
| 20260906222518 | 82 | 220 | 11.0 | 22.0 | 0.00 | 0.00 | 0.00 | 30 | 1020.7 |
| 20260906222020 | 82 | 218 | 13.0 | 22.0 | 0.00 | 0.00 | 0.00 | 30 | 1020.8 |
| 20260906221542 | 82 | 255 | 11.0 | 18.0 | 0.00 | 0.00 | 0.00 | 30 | 1020.6 |
| 20260906221020 | 82 | 241 | 13.0 | 17.0 | 0.00 | 0.00 | 0.00 | 30 | 1020.8 |
| 20260906220520 | 82 | 251 | 7.0 | 12.0 | 0.00 | 0.00 | 0.00 | 30 | 1020.8 |
| 20260906220037 | 81 | 266 | 1.0 | 11.0 | 0.00 | 0.00 | 0.00 | 31 | 1021.0 |
| 20260906215520 | 80 | 231 | 5.0 | 13.0 | 0.00 | 0.00 | 0.00 | 31 | 1021.0 |
| 20260906215018 | 81 | 231 | 8.0 | 13.0 | 0.00 | 0.00 | 0.00 | 31 | 1021.0 |
| 20260906214539 | 81 | 230 | 7.0 | 15.0 | 0.00 | 0.00 | 0.00 | 31 | 1021.1 |
| 20260906214025 | 81 | 243 | 9.0 | 15.0 | 0.00 | 0.00 | 0.00 | 31 | 1021.2 |
| 20260906213520 | 81 | 254 | 7.0 | 12.0 | 0.00 | 0.00 | 0.00 | 30 | 1021.3 |
| 20260906213038 | 81 | 255 | 3.0 | 15.0 | 0.00 | 0.00 | 0.00 | 30 | 1021.2 |
| 20260906212517 | 81 | 260 | 3.0 | 15.0 | 0.00 | 0.00 | 0.00 | 30 | 1021.3 |
| 20260906212020 | 81 | 271 | 4.0 | 11.0 | 0.00 | 0.00 | 0.00 | 30 | 1021.3 |
| 20260906211542 | 82 | 271 | 4.0 | 8.0 | 0.00 | 0.00 | 0.00 | 30 | 1021.2 |
| 20260906211024 | 82 | 324 | 1.0 | 13.0 | 0.00 | 0.00 | 0.00 | 30 | 1021.2 |
| 20260906210520 | 81 | 206 | 7.0 | 13.0 | 0.00 | 0.00 | 0.00 | 30 | 1021.4 |
| 20260906210038 | 81 | 223 | 6.0 | 20.0 | 0.00 | 0.00 | 0.00 | 30 | 1021.3 |
| 20260906205520 | 81 | 269 | 7.0 | 20.0 | 0.00 | 0.00 | 0.00 | 30 | 1021.4 |
| 20260906205018 | 81 | 296 | 5.0 | 20.0 | 0.00 | 0.00 | 0.00 | 31 | 1021.5 |
| 20260906204541 | 81 | 299 | 5.0 | 14.0 | 0.00 | 0.00 | 0.00 | 29 | 1021.5 |
| 20260906204019 | 82 | 293 | 11.0 | 15.0 | 0.00 | 0.00 | 0.00 | 30 | 1021.4 |
| 20260906203520 | 81 | 278 | 10.0 | 15.0 | 0.00 | 0.00 | 0.00 | 29 | 1021.5 |
| 20260906203046 | 81 | 295 | 5.0 | 12.0 | 0.00 | 0.00 | 0.00 | 29 | 1021.6 |
| 20260906202520 | 80 | 302 | 4.0 | 15.0 | 0.00 | 0.00 | 0.00 | 30 | 1021.6 |
| 20260906202018 | 79 | 264 | 8.0 | 15.0 | 0.00 | 0.00 | 0.00 | 30 | 1021.8 |
| 20260906201536 | 79 | 263 | 11.0 | 15.0 | 0.00 | 0.00 | 0.00 | 30 | 1021.8 |
| 20260906201020 | 80 | 271 | 6.0 | 13.0 | 0.00 | 0.00 | 0.00 | 30 | 1021.8 |
| 20260906200520 | 80 | 254 | 7.0 | 15.0 | 0.00 | 0.00 | 0.00 | 29 | 1021.7 |
| 20260906200046 | 80 | 279 | 10.0 | 15.0 | 0.00 | 0.00 | 0.00 | 29 | 1021.9 |
| 20260906195520 | 80 | 303 | 6.0 | 15.0 | 0.00 | 0.00 | 0.00 | 28 | 1021.9 |
| 20260906195017 | 81 | 220 | 7.0 | 15.0 | 0.00 | 0.00 | 0.00 | 27 | 1022.0 |
| 20260906194536 | 81 | 241 | 8.0 | 15.0 | 0.00 | 0.00 | 0.00 | 28 | 1022.0 |
| 20260906194024 | 80 | 229 | 6.0 | 15.0 | 0.00 | 0.00 | 0.00 | 27 | 1022.1 |
| 20260906193518 | 80 | 288 | 10.0 | 15.0 | 0.00 | 0.00 | 0.00 | 27 | 1022.2 |
| 20260906193059 | 79 | 301 | 7.0 | 14.0 | 0.00 | 0.00 | 0.00 | 28 | 1022.3 |
| 20260906192520 | 80 | 293 | 8.0 | 14.0 | 0.00 | 0.00 | 0.00 | 27 | 1022.5 |
| 20260906192020 | 80 | 272 | 3.0 | 12.0 | 0.00 | 0.00 | 0.00 | 27 | 1022.6 |
| 20260906191541 | 80 | 293 | 6.0 | 12.0 | 0.00 | 0.00 | 0.00 | 27 | 1022.8 |
| 20260906191018 | 80 | 283 | 6.0 | 11.0 | 0.00 | 0.00 | 0.00 | 27 | 1022.8 |
| 20260906190520 | 79 | 242 | 6.0 | 12.0 | 0.00 | 0.00 | 0.00 | 29 | 1023.0 |
| 20260906190040 | 79 | 284 | 7.0 | 12.0 | 0.00 | 0.00 | 0.00 | 27 | 1022.9 |
| 20260906185519 | 79 | 262 | 6.0 | 12.0 | 0.00 | 0.00 | 0.00 | 27 | 1023.1 |
| 20260906185018 | 78 | 345 | 8.0 | 12.0 | 0.00 | 0.00 | 0.00 | 27 | 1023.1 |
| 20260906184545 | 79 | 277 | 8.0 | 12.0 | 0.00 | 0.00 | 0.00 | 26 | 1023.2 |
| 20260906184020 | 78 | 272 | 7.0 | 15.0 | 0.00 | 0.00 | 0.00 | 27 | 1023.2 |
| 20260906183518 | 79 | 240 | 9.0 | 15.0 | 0.00 | 0.00 | 0.00 | 27 | 1023.2 |
| 20260906183039 | 79 | 257 | 9.0 | 19.0 | 0.00 | 0.00 | 0.00 | 26 | 1023.4 |
| 20260906182521 | 80 | 276 | 7.0 | 19.0 | 0.00 | 0.00 | 0.00 | 24 | 1023.3 |
| 20260906182020 | 81 | 252 | 11.0 | 16.0 | 0.00 | 0.00 | 0.00 | 25 | 1023.2 |
| 20260906181557 | 79 | 283 | 8.0 | 14.0 | 0.00 | 0.00 | 0.00 | 26 | 1023.4 |
| 20260906181017 | 79 | 283 | 6.0 | 11.0 | 0.00 | 0.00 | 0.00 | 25 | 1023.5 |
| 20260906180518 | 78 | 309 | 4.0 | 17.0 | 0.00 | 0.00 | 0.00 | 24 | 1023.5 |
| 20260906180040 | 78 | 0 | 6.0 | 17.0 | 0.00 | 0.00 | 0.00 | 24 | 1023.6 |
| 20260906175520 | 78 | 296 | 5.0 | 11.0 | 0.00 | 0.00 | 0.00 | 24 | 1023.6 |
| 20260906175024 | 78 | 302 | 5.0 | 11.0 | 0.00 | 0.00 | 0.00 | 24 | 1023.6 |
| 20260906174546 | 79 | 333 | 4.0 | 11.0 | 0.00 | 0.00 | 0.00 | 24 | 1023.7 |
| 20260906174019 | 78 | 350 | 2.0 | 13.0 | 0.00 | 0.00 | 0.00 | 23 | 1023.7 |
| 20260906173524 | 78 | 281 | 5.0 | 13.0 | 0.00 | 0.00 | 0.00 | 24 | 1023.7 |
| 20260906173038 | 78 | 304 | 4.0 | 11.0 | 0.00 | 0.00 | 0.00 | 23 | 1023.8 |
| 20260906172517 | 78 | 338 | 8.0 | 11.0 | 0.00 | 0.00 | 0.00 | 24 | 1023.8 |
| 20260906172024 | 78 | 306 | 7.0 | 13.0 | 0.00 | 0.00 | 0.00 | 23 | 1023.9 |
| 20260906171535 | 78 | 310 | 4.0 | 13.0 | 0.00 | 0.00 | 0.00 | 23 | 1024.1 |
| 20260906171020 | 78 | 304 | 3.0 | 11.0 | 0.00 | 0.00 | 0.00 | 24 | 1024.2 |
| 20260906170521 | 77 | 287 | 7.0 | 11.0 | 0.00 | 0.00 | 0.00 | 24 | 1024.1 |
| 20260906170045 | 77 | 288 | 4.0 | 10.0 | 0.00 | 0.00 | 0.00 | 24 | 1024.1 |
| 20260906165516 | 77 | 272 | 5.0 | 9.0 | 0.00 | 0.00 | 0.00 | 24 | 1024.2 |
| 20260906165020 | 77 | 291 | 3.0 | 9.0 | 0.00 | 0.00 | 0.00 | 25 | 1024.2 |
| 20260906164543 | 77 | 263 | 5.0 | 9.0 | 0.00 | 0.00 | 0.00 | 24 | 1024.3 |
| 20260906164017 | 77 | 304 | 5.0 | 9.0 | 0.00 | 0.00 | 0.00 | 25 | 1024.4 |
| 20260906163517 | 77 | 239 | 6.0 | 9.0 | 0.00 | 0.00 | 0.00 | 25 | 1024.4 |
| 20260906163036 | 77 | 270 | 6.0 | 9.0 | 0.00 | 0.00 | 0.00 | 25 | 1024.2 |
| 20260906162523 | 77 | 325 | 3.0 | 8.0 | 0.00 | 0.00 | 0.00 | 26 | 1024.2 |
| 20260906162018 | 78 | 259 | 5.0 | 8.0 | 0.00 | 0.00 | 0.00 | 25 | 1024.2 |
| 20260906161536 | 78 | 272 | 1.0 | 7.0 | 0.00 | 0.00 | 0.00 | 26 | 1024.1 |
| 20260906161017 | 77 | 268 | 3.0 | 7.0 | 0.00 | 0.00 | 0.00 | 26 | 1024.2 |
| 20260906160517 | 77 | 241 | 2.0 | 6.0 | 0.00 | 0.00 | 0.00 | 26 | 1024.2 |
| 20260906160038 | 77 | 0 | 0.0 | 5.0 | 0.00 | 0.00 | 0.00 | 27 | 1024.1 |
| 20260906155521 | 77 | 214 | 2.0 | 5.0 | 0.00 | 0.00 | 0.00 | 27 | 1024.3 |
| 20260906155021 | 76 | 158 | 1.0 | 4.0 | 0.00 | 0.00 | 0.00 | 28 | 1024.2 |
| 20260906154542 | 75 | 0 | 0.0 | 6.0 | 0.00 | 0.00 | 0.00 | 29 | 1024.2 |
| 20260906154023 | 74 | 71 | 2.0 | 6.0 | 0.00 | 0.00 | 0.00 | 30 | 1024.2 |
| 20260906153517 | 73 | 101 | 3.0 | 6.0 | 0.00 | 0.00 | 0.00 | 32 | 1024.0 |
| 20260906153041 | 73 | 108 | 3.0 | 8.0 | 0.00 | 0.00 | 0.00 | 32 | 1024.1 |
| 20260906152526 | 72 | 116 | 5.0 | 8.0 | 0.00 | 0.00 | 0.00 | 33 | 1024.2 |
| 20260906152022 | 71 | 108 | 6.0 | 8.0 | 0.00 | 0.00 | 0.00 | 34 | 1024.2 |
| 20260906151540 | 70 | 134 | 6.0 | 9.0 | 0.00 | 0.00 | 0.00 | 35 | 1024.2 |
| 20260906151021 | 70 | 103 | 6.0 | 10.0 | 0.00 | 0.00 | 0.00 | 35 | 1024.2 |
| 20260906150518 | 70 | 93 | 7.0 | 10.0 | 0.00 | 0.00 | 0.00 | 34 | 1024.3 |
| 20260906150043 | 69 | 108 | 8.0 | 11.0 | 0.00 | 0.00 | 0.00 | 35 | 1024.1 |
| 20260906145523 | 69 | 93 | 8.0 | 11.0 | 0.00 | 0.00 | 0.00 | 35 | 1024.2 |
| 20260906145022 | 68 | 105 | 8.0 | 10.0 | 0.00 | 0.00 | 0.00 | 36 | 1024.3 |
| 20260906144547 | 67 | 91 | 8.0 | 10.0 | 0.00 | 0.00 | 0.00 | 37 | 1024.2 |
| 20260906144018 | 67 | 107 | 8.0 | 10.0 | 0.00 | 0.00 | 0.00 | 37 | 1024.3 |
| 20260906143520 | 67 | 110 | 6.0 | 11.0 | 0.00 | 0.00 | 0.00 | 38 | 1024.3 |
| 20260906143038 | 66 | 96 | 7.0 | 11.0 | 0.00 | 0.00 | 0.00 | 38 | 1024.3 |
| 20260906142520 | 66 | 100 | 8.0 | 11.0 | 0.00 | 0.00 | 0.00 | 37 | 1024.3 |
| 20260906142021 | 65 | 113 | 6.0 | 12.0 | 0.00 | 0.00 | 0.00 | 39 | 1024.3 |
| 20260906141538 | 64 | 104 | 9.0 | 12.0 | 0.00 | 0.00 | 0.00 | 39 | 1024.2 |
| 20260906141019 | 64 | 103 | 9.0 | 11.0 | 0.00 | 0.00 | 0.00 | 39 | 1024.3 |
| 20260906140519 | 63 | 113 | 9.0 | 13.0 | 0.00 | 0.00 | 0.00 | 40 | 1024.3 |
| 20260906140038 | 62 | 111 | 9.0 | 15.0 | 0.00 | 0.00 | 0.00 | 40 | 1024.3 |
| 20260906135520 | 62 | 108 | 10.0 | 15.0 | 0.00 | 0.00 | 0.00 | 42 | 1024.3 |
| 20260906135018 | 61 | 124 | 10.0 | 14.0 | 0.00 | 0.00 | 0.00 | 42 | 1024.4 |
| 20260906134536 | 60 | 129 | 10.0 | 14.0 | 0.00 | 0.00 | 0.00 | 42 | 1024.4 |
| 20260906134020 | 59 | 116 | 10.0 | 13.0 | 0.00 | 0.00 | 0.00 | 44 | 1024.4 |
| 20260906133518 | 58 | 104 | 8.0 | 12.0 | 0.00 | 0.00 | 0.00 | 44 | 1024.4 |
| 20260906133036 | 58 | 110 | 8.0 | 12.0 | 0.00 | 0.00 | 0.00 | 45 | 1024.2 |
| 20260906132520 | 58 | 110 | 9.0 | 12.0 | 0.00 | 0.00 | 0.00 | 45 | 1024.3 |
| 20260906132018 | 57 | 110 | 7.0 | 13.0 | 0.00 | 0.00 | 0.00 | 45 | 1024.2 |
| 20260906131538 | 57 | 108 | 8.0 | 13.0 | 0.00 | 0.00 | 0.00 | 46 | 1024.2 |
| 20260906131022 | 57 | 113 | 8.0 | 12.0 | 0.00 | 0.00 | 0.00 | 46 | 1024.2 |
| 20260906130522 | 56 | 110 | 8.0 | 12.0 | 0.00 | 0.00 | 0.00 | 47 | 1024.1 |
| 20260906130042 | 56 | 113 | 8.0 | 12.0 | 0.00 | 0.00 | 0.00 | 47 | 1024.1 |
| 20260906125520 | 56 | 122 | 9.0 | 13.0 | 0.00 | 0.00 | 0.00 | 47 | 1023.9 |
| 20260906125020 | 56 | 117 | 8.0 | 15.0 | 0.00 | 0.00 | 0.00 | 47 | 1023.9 |
| 20260906124542 | 56 | 120 | 11.0 | 15.0 | 0.00 | 0.00 | 0.00 | 47 | 1023.8 |
| 20260906124018 | 56 | 107 | 10.0 | 14.0 | 0.00 | 0.00 | 0.00 | 47 | 1023.9 |
| 20260906123517 | 56 | 126 | 9.0 | 14.0 | 0.00 | 0.00 | 0.00 | 46 | 1023.8 |
| 20260906123039 | 56 | 106 | 10.0 | 14.0 | 0.00 | 0.00 | 0.00 | 46 | 1023.8 |
| 20260906122520 | 56 | 89 | 11.0 | 14.0 | 0.00 | 0.00 | 0.00 | 46 | 1023.7 |
| 20260906122020 | 56 | 110 | 9.0 | 12.0 | 0.00 | 0.00 | 0.00 | 46 | 1023.6 |
| 20260906121536 | 56 | 104 | 9.0 | 12.0 | 0.00 | 0.00 | 0.00 | 46 | 1023.6 |
| 20260906121021 | 56 | 120 | 8.0 | 13.0 | 0.00 | 0.00 | 0.00 | 46 | 1023.6 |
| 20260906120518 | 56 | 98 | 8.0 | 13.0 | 0.00 | 0.00 | 0.00 | 47 | 1023.6 |
| 20260906120042 | 56 | 104 | 9.0 | 13.0 | 0.00 | 0.00 | 0.00 | 47 | 1023.6 |
| 20260906115518 | 57 | 113 | 8.0 | 14.0 | 0.00 | 0.00 | 0.00 | 46 | 1023.6 |
| 20260906115017 | 57 | 118 | 8.0 | 15.0 | 0.00 | 0.00 | 0.00 | 45 | 1023.5 |
| 20260906114548 | 57 | 113 | 11.0 | 15.0 | 0.00 | 0.00 | 0.00 | 45 | 1023.5 |
| 20260906114018 | 57 | 108 | 10.0 | 14.0 | 0.00 | 0.00 | 0.00 | 46 | 1023.6 |
| 20260906113518 | 57 | 131 | 10.0 | 14.0 | 0.00 | 0.00 | 0.00 | 46 | 1023.6 |
| 20260906113038 | 57 | 111 | 9.0 | 14.0 | 0.00 | 0.00 | 0.00 | 46 | 1023.6 |
| 20260906112520 | 57 | 131 | 8.0 | 13.0 | 0.00 | 0.00 | 0.00 | 46 | 1023.6 |
| 20260906112025 | 57 | 110 | 9.0 | 13.0 | 0.00 | 0.00 | 0.00 | 46 | 1023.5 |
| 20260906111540 | 57 | 101 | 7.0 | 11.0 | 0.00 | 0.00 | 0.00 | 46 | 1023.5 |
| 20260906111020 | 56 | 101 | 9.0 | 11.0 | 0.00 | 0.00 | 0.00 | 47 | 1023.4 |
| 20260906110520 | 56 | 111 | 8.0 | 11.0 | 0.00 | 0.00 | 0.00 | 49 | 1023.7 |
| 20260906110038 | 55 | 129 | 8.0 | 10.0 | 0.00 | 0.00 | 0.00 | 49 | 1023.5 |
| 20260906105520 | 55 | 116 | 6.0 | 10.0 | 0.00 | 0.00 | 0.00 | 50 | 1023.6 |
| 20260906105020 | 56 | 117 | 6.0 | 10.0 | 0.00 | 0.00 | 0.00 | 49 | 1023.6 |
| 20260906104547 | 55 | 114 | 7.0 | 10.0 | 0.00 | 0.00 | 0.00 | 50 | 1023.5 |
| 20260906104020 | 55 | 115 | 7.0 | 10.0 | 0.00 | 0.00 | 0.00 | 50 | 1023.4 |
| 20260906103518 | 54 | 121 | 7.0 | 10.0 | 0.00 | 0.00 | 0.00 | 51 | 1023.6 |
| 20260906103039 | 54 | 108 | 8.0 | 10.0 | 0.00 | 0.00 | 0.00 | 52 | 1023.5 |
| 20260906102520 | 53 | 120 | 6.0 | 10.0 | 0.00 | 0.00 | 0.00 | 52 | 1023.5 |
| 20260906102020 | 54 | 115 | 7.0 | 10.0 | 0.00 | 0.00 | 0.00 | 52 | 1023.6 |
| 20260906101535 | 54 | 119 | 5.0 | 8.0 | 0.00 | 0.00 | 0.00 | 52 | 1023.6 |
| 20260906101020 | 54 | 113 | 6.0 | 8.0 | 0.00 | 0.00 | 0.00 | 51 | 1023.7 |
| 20260906100520 | 55 | 118 | 6.0 | 8.0 | 0.00 | 0.00 | 0.00 | 51 | 1023.7 |
| 20260906100037 | 54 | 108 | 6.0 | 9.0 | 0.00 | 0.00 | 0.00 | 51 | 1023.6 |
| 20260906095524 | 55 | 129 | 6.0 | 9.0 | 0.00 | 0.00 | 0.00 | 50 | 1023.6 |
| 20260906095019 | 55 | 134 | 8.0 | 9.0 | 0.00 | 0.00 | 0.00 | 50 | 1023.7 |
| 20260906094557 | 55 | 124 | 6.0 | 9.0 | 0.00 | 0.00 | 0.00 | 50 | 1023.7 |
| 20260906094021 | 55 | 108 | 6.0 | 9.0 | 0.00 | 0.00 | 0.00 | 50 | 1023.8 |
| 20260906093520 | 56 | 122 | 7.0 | 9.0 | 0.00 | 0.00 | 0.00 | 50 | 1023.8 |
| 20260906093053 | 55 | 117 | 6.0 | 10.0 | 0.00 | 0.00 | 0.00 | 50 | 1023.8 |
| 20260906092520 | 56 | 119 | 7.0 | 10.0 | 0.00 | 0.00 | 0.00 | 50 | 1023.7 |
| 20260906092020 | 55 | 121 | 7.0 | 9.0 | 0.00 | 0.00 | 0.00 | 51 | 1023.8 |
| 20260906091537 | 54 | 117 | 6.0 | 7.0 | 0.00 | 0.00 | 0.00 | 52 | 1023.8 |
| 20260906091017 | 54 | 115 | 5.0 | 7.0 | 0.00 | 0.00 | 0.00 | 53 | 1023.8 |
| 20260906090518 | 54 | 129 | 5.0 | 8.0 | 0.00 | 0.00 | 0.00 | 54 | 1023.8 |
| 20260906090039 | 54 | 116 | 6.0 | 8.0 | 0.00 | 0.00 | 0.00 | 53 | 1023.7 |
| 20260906085520 | 54 | 116 | 7.0 | 8.0 | 0.00 | 0.00 | 0.00 | 53 | 1023.8 |
| 20260906085020 | 54 | 114 | 5.0 | 7.0 | 0.00 | 0.00 | 0.00 | 53 | 1023.8 |
| 20260906084538 | 54 | 117 | 5.0 | 9.0 | 0.00 | 0.00 | 0.00 | 53 | 1024.0 |
| 20260906084021 | 54 | 141 | 6.0 | 9.0 | 0.00 | 0.00 | 0.00 | 53 | 1023.9 |
| 20260906083518 | 54 | 117 | 6.0 | 8.0 | 0.00 | 0.00 | 0.00 | 53 | 1024.0 |
| 20260906083045 | 54 | 113 | 6.0 | 8.0 | 0.00 | 0.00 | 0.00 | 54 | 1024.0 |
| 20260906082517 | 55 | 133 | 6.0 | 8.0 | 0.00 | 0.00 | 0.00 | 53 | 1024.0 |
| 20260906082024 | 55 | 111 | 6.0 | 8.0 | 0.00 | 0.00 | 0.00 | 53 | 1023.9 |
| 20260906081538 | 54 | 112 | 5.0 | 7.0 | 0.00 | 0.00 | 0.00 | 55 | 1024.0 |
| 20260906081020 | 53 | 131 | 4.0 | 6.0 | 0.00 | 0.00 | 0.00 | 55 | 1024.1 |
| 20260906080520 | 53 | 132 | 5.0 | 7.0 | 0.00 | 0.00 | 0.00 | 55 | 1024.0 |
| 20260906080041 | 53 | 126 | 5.0 | 7.0 | 0.00 | 0.00 | 0.00 | 54 | 1024.0 |
| 20260906075517 | 54 | 127 | 5.0 | 7.0 | 0.00 | 0.00 | 0.00 | 52 | 1024.0 |
| 20260906075018 | 55 | 126 | 5.0 | 10.0 | 0.00 | 0.00 | 0.00 | 51 | 1023.9 |
| 20260906074539 | 57 | 106 | 6.0 | 10.0 | 0.00 | 0.00 | 0.00 | 49 | 1024.0 |
| 20260906074016 | 58 | 112 | 8.0 | 12.0 | 0.00 | 0.00 | 0.00 | 47 | 1023.9 |
| 20260906073518 | 58 | 110 | 8.0 | 12.0 | 0.00 | 0.00 | 0.00 | 46 | 1023.9 |
| 20260906073037 | 58 | 118 | 8.0 | 11.0 | 0.00 | 0.00 | 0.00 | 46 | 1023.9 |
| 20260906072518 | 59 | 105 | 7.0 | 9.0 | 0.00 | 0.00 | 0.00 | 45 | 1023.8 |
| 20260906072018 | 59 | 101 | 7.0 | 9.0 | 0.00 | 0.00 | 0.00 | 45 | 1023.9 |
| 20260906071539 | 59 | 94 | 6.0 | 9.0 | 0.00 | 0.00 | 0.00 | 45 | 1023.9 |
| 20260906071018 | 58 | 102 | 7.0 | 9.0 | 0.00 | 0.00 | 0.00 | 45 | 1024.1 |
| 20260906070521 | 57 | 107 | 6.0 | 8.0 | 0.00 | 0.00 | 0.00 | 46 | 1024.2 |
| 20260906070037 | 58 | 89 | 6.0 | 9.0 | 0.00 | 0.00 | 0.00 | 46 | 1024.1 |
| 20260906065517 | 58 | 81 | 6.0 | 9.0 | 0.00 | 0.00 | 0.00 | 45 | 1024.2 |
| 20260906065016 | 58 | 76 | 6.0 | 8.0 | 0.00 | 0.00 | 0.00 | 45 | 1024.1 |
| 20260906064537 | 58 | 64 | 5.0 | 6.0 | 0.00 | 0.00 | 0.00 | 45 | 1024.1 |
| 20260906064019 | 58 | 75 | 5.0 | 7.0 | 0.00 | 0.00 | 0.00 | 45 | 1024.2 |
| 20260906063519 | 58 | 75 | 5.0 | 7.0 | 0.00 | 0.00 | 0.00 | 46 | 1024.2 |
| 20260906063039 | 58 | 86 | 5.0 | 6.0 | 0.00 | 0.00 | 0.00 | 46 | 1024.2 |
| 20260906062518 | 58 | 82 | 3.0 | 9.0 | 0.00 | 0.00 | 0.00 | 46 | 1024.2 |
| 20260906062020 | 58 | 101 | 5.0 | 9.0 | 0.00 | 0.00 | 0.00 | 46 | 1024.1 |
| 20260906061538 | 58 | 113 | 6.0 | 9.0 | 0.00 | 0.00 | 0.00 | 45 | 1023.9 |
| 20260906061017 | 58 | 99 | 7.0 | 9.0 | 0.00 | 0.00 | 0.00 | 45 | 1023.9 |
| 20260906060523 | 59 | 99 | 6.0 | 8.0 | 0.00 | 0.00 | 0.00 | 44 | 1023.9 |
| 20260906060037 | 58 | 106 | 4.0 | 6.0 | 0.00 | 0.00 | 0.00 | 45 | 1024.0 |
| 20260906055520 | 57 | 108 | 3.0 | 6.0 | 0.00 | 0.00 | 0.00 | 46 | 1023.9 |
| 20260906055017 | 57 | 105 | 4.0 | 6.0 | 0.00 | 0.00 | 0.00 | 45 | 1023.9 |
| 20260906054541 | 57 | 102 | 4.0 | 8.0 | 0.00 | 0.00 | 0.00 | 46 | 1023.8 |
| 20260906054023 | 57 | 103 | 5.0 | 8.0 | 0.00 | 0.00 | 0.00 | 46 | 1023.9 |
| 20260906053519 | 57 | 110 | 4.0 | 7.0 | 0.00 | 0.00 | 0.00 | 45 | 1023.9 |
| 20260906053040 | 58 | 96 | 5.0 | 7.0 | 0.00 | 0.00 | 0.00 | 45 | 1024.0 |
| 20260906052520 | 57 | 83 | 4.0 | 6.0 | 0.00 | 0.00 | 0.00 | 45 | 1024.0 |
| 20260906052019 | 58 | 83 | 4.0 | 7.0 | 0.00 | 0.00 | 0.00 | 44 | 1024.0 |
| 20260906051548 | 59 | 89 | 3.0 | 7.0 | 0.00 | 0.00 | 0.00 | 43 | 1024.0 |
| 20260906051020 | 58 | 104 | 4.0 | 7.0 | 0.00 | 0.00 | 0.00 | 43 | 1024.3 |
| 20260906050522 | 59 | 91 | 4.0 | 8.0 | 0.00 | 0.00 | 0.00 | 41 | 1024.1 |
| 20260906050036 | 60 | 91 | 5.0 | 8.0 | 0.00 | 0.00 | 0.00 | 40 | 1024.1 |
| 20260906045521 | 63 | 98 | 6.0 | 8.0 | 0.00 | 0.00 | 0.00 | 37 | 1024.1 |
| 20260906045018 | 63 | 134 | 6.0 | 8.0 | 0.00 | 0.00 | 0.00 | 36 | 1024.2 |
| 20260906044538 | 63 | 136 | 6.0 | 9.0 | 0.00 | 0.00 | 0.00 | 36 | 1024.0 |
| 20260906044022 | 63 | 127 | 7.0 | 10.0 | 0.00 | 0.00 | 0.00 | 36 | 1024.2 |
| 20260906043518 | 64 | 126 | 7.0 | 10.0 | 0.00 | 0.00 | 0.00 | 35 | 1024.2 |
| 20260906043036 | 64 | 121 | 6.0 | 9.0 | 0.00 | 0.00 | 0.00 | 35 | 1024.3 |
| 20260906042520 | 64 | 126 | 5.0 | 7.0 | 0.00 | 0.00 | 0.00 | 35 | 1024.1 |
| 20260906042020 | 64 | 122 | 5.0 | 7.0 | 0.00 | 0.00 | 0.00 | 34 | 1024.1 |
| 20260906041537 | 65 | 127 | 4.0 | 7.0 | 0.00 | 0.00 | 0.00 | 33 | 1024.2 |
| 20260906041018 | 65 | 135 | 4.0 | 7.0 | 0.00 | 0.00 | 0.00 | 33 | 1024.2 |
| 20260906040518 | 65 | 121 | 4.0 | 7.0 | 0.00 | 0.00 | 0.00 | 33 | 1024.1 |
| 20260906040041 | 65 | 129 | 4.0 | 7.0 | 0.00 | 0.00 | 0.00 | 33 | 1024.1 |
| 20260906035519 | 65 | 133 | 4.0 | 7.0 | 0.00 | 0.00 | 0.00 | 33 | 1024.0 |
| 20260906035023 | 66 | 136 | 4.0 | 7.0 | 0.00 | 0.00 | 0.00 | 32 | 1023.8 |
| 20260906034538 | 66 | 135 | 5.0 | 8.0 | 0.00 | 0.00 | 0.00 | 32 | 1023.9 |
| 20260906034020 | 66 | 146 | 4.0 | 8.0 | 0.00 | 0.00 | 0.00 | 32 | 1023.8 |
| 20260906033520 | 66 | 150 | 4.0 | 6.0 | 0.00 | 0.00 | 0.00 | 31 | 1023.8 |
| 20260906033045 | 66 | 157 | 3.0 | 5.0 | 0.00 | 0.00 | 0.00 | 32 | 1023.6 |
| 20260906032518 | 66 | 136 | 2.0 | 4.0 | 0.00 | 0.00 | 0.00 | 32 | 1023.7 |
| 20260906032018 | 65 | 135 | 2.0 | 3.0 | 0.00 | 0.00 | 0.00 | 33 | 1023.7 |
| 20260906031539 | 66 | 111 | 2.0 | 6.0 | 0.00 | 0.00 | 0.00 | 32 | 1023.6 |
| 20260906031018 | 67 | 139 | 2.0 | 6.0 | 0.00 | 0.00 | 0.00 | 31 | 1023.6 |
| 20260906030518 | 67 | 117 | 4.0 | 6.0 | 0.00 | 0.00 | 0.00 | 31 | 1023.4 |
| 20260906030040 | 67 | 131 | 2.0 | 6.0 | 0.00 | 0.00 | 0.00 | 31 | 1023.5 |
| 20260906025516 | 68 | 134 | 1.0 | 8.0 | 0.00 | 0.00 | 0.00 | 29 | 1023.4 |
| 20260906025022 | 69 | 207 | 2.0 | 8.0 | 0.00 | 0.00 | 0.00 | 28 | 1023.3 |
| 20260906024548 | 70 | 181 | 3.0 | 6.0 | 0.00 | 0.00 | 0.00 | 28 | 1023.3 |
| 20260906024018 | 70 | 212 | 4.0 | 6.0 | 0.00 | 0.00 | 0.00 | 28 | 1023.2 |
| 20260906023520 | 70 | 232 | 3.0 | 6.0 | 0.00 | 0.00 | 0.00 | 28 | 1023.1 |
| 20260906023038 | 70 | 228 | 3.0 | 6.0 | 0.00 | 0.00 | 0.00 | 28 | 1022.9 |
| 20260906022517 | 70 | 224 | 4.0 | 6.0 | 0.00 | 0.00 | 0.00 | 28 | 1023.0 |
| 20260906022020 | 70 | 232 | 4.0 | 6.0 | 0.00 | 0.00 | 0.00 | 28 | 1022.9 |
| 20260906021538 | 70 | 247 | 4.0 | 6.0 | 0.00 | 0.00 | 0.00 | 28 | 1022.8 |
| 20260906021020 | 71 | 250 | 4.0 | 8.0 | 0.00 | 0.00 | 0.00 | 28 | 1022.9 |
| 20260906020520 | 71 | 253 | 4.0 | 8.0 | 0.00 | 0.00 | 0.00 | 27 | 1022.8 |
| 20260906020039 | 71 | 260 | 4.0 | 8.0 | 0.00 | 0.00 | 0.00 | 28 | 1022.8 |
| 20260906015520 | 71 | 252 | 4.0 | 8.0 | 0.00 | 0.00 | 0.00 | 27 | 1022.6 |
| 20260906015019 | 72 | 223 | 4.0 | 8.0 | 0.00 | 0.00 | 0.00 | 27 | 1022.5 |
| 20260906014611 | 72 | 253 | 3.0 | 8.0 | 0.00 | 0.00 | 0.00 | 27 | 1022.6 |
| 20260906014017 | 73 | 256 | 4.0 | 11.0 | 0.00 | 0.00 | 0.00 | 26 | 1022.5 |
| 20260906013517 | 74 | 277 | 6.0 | 11.0 | 0.00 | 0.00 | 0.00 | 26 | 1022.6 |
| 20260906013047 | 75 | 274 | 6.0 | 12.0 | 0.00 | 0.00 | 0.00 | 25 | 1022.5 |
| 20260906012522 | 76 | 268 | 7.0 | 12.0 | 0.00 | 0.00 | 0.00 | 25 | 1022.5 |
| 20260906012020 | 76 | 281 | 8.0 | 12.0 | 0.00 | 0.00 | 0.00 | 25 | 1022.5 |
| 20260906011540 | 76 | 274 | 8.0 | 12.0 | 0.00 | 0.00 | 0.00 | 25 | 1022.4 |
| 20260906011018 | 77 | 259 | 7.0 | 13.0 | 0.00 | 0.00 | 0.00 | 25 | 1022.4 |
| 20260906010518 | 77 | 262 | 8.0 | 13.0 | 0.00 | 0.00 | 0.00 | 24 | 1022.5 |
| 20260906010046 | 78 | 243 | 7.0 | 14.0 | 0.00 | 0.00 | 0.00 | 25 | 1022.3 |
| 20260906005517 | 78 | 284 | 7.0 | 14.0 | 0.00 | 0.00 | 0.00 | 25 | 1022.5 |
| 20260906005023 | 78 | 262 | 7.0 | 14.0 | 0.00 | 0.00 | 0.00 | 25 | 1022.5 |
| 20260906004538 | 78 | 258 | 9.0 | 14.0 | 0.00 | 0.00 | 0.00 | 25 | 1022.4 |
| 20260906004024 | 79 | 281 | 8.0 | 13.0 | 0.00 | 0.00 | 0.00 | 24 | 1022.4 |
| 20260906003516 | 79 | 261 | 9.0 | 12.0 | 0.00 | 0.00 | 0.00 | 24 | 1022.4 |
| 20260906003037 | 79 | 286 | 7.0 | 12.0 | 0.00 | 0.00 | 0.00 | 25 | 1022.4 |
| 20260906002519 | 79 | 280 | 8.0 | 13.0 | 0.00 | 0.00 | 0.00 | 25 | 1022.3 |
| 20260906002020 | 79 | 288 | 8.0 | 13.0 | 0.00 | 0.00 | 0.00 | 24 | 1022.3 |
| 20260906001541 | 79 | 261 | 10.0 | 13.0 | 0.00 | 0.00 | 0.00 | 24 | 1022.2 |
| 20260906001017 | 80 | 252 | 8.0 | 13.0 | 0.00 | 0.00 | 0.00 | 24 | 1022.1 |
| 20260906000517 | 80 | 288 | 7.0 | 15.0 | 0.00 | 0.00 | 0.00 | 23 | 1022.3 |
| 20260906000042 | 80 | 262 | 9.0 | 15.0 | 0.00 | 0.00 | 0.00 | 22 | 1022.3 |
| 20260905235520 | 80 | 258 | 12.0 | 15.0 | 0.00 | 0.00 | 0.00 | 23 | 1022.2 |
| 20260905235017 | 81 | 260 | 9.0 | 15.0 | 0.00 | 0.00 | 0.00 | 23 | 1022.2 |
| 20260905234538 | 81 | 276 | 9.0 | 16.0 | 0.00 | 0.00 | 0.00 | 24 | 1022.3 |
| 20260905234018 | 81 | 283 | 11.0 | 18.0 | 0.00 | 0.00 | 0.00 | 24 | 1022.3 |
| 20260905233523 | 81 | 288 | 9.0 | 18.0 | 0.00 | 0.00 | 0.00 | 24 | 1022.2 |
| 20260905233035 | 80 | 263 | 13.0 | 19.0 | 0.00 | 0.00 | 0.00 | 24 | 1022.1 |
| 20260905232518 | 80 | 257 | 11.0 | 19.0 | 0.00 | 0.00 | 0.00 | 25 | 1022.2 |
| 20260905232020 | 81 | 274 | 9.0 | 20.0 | 0.00 | 0.00 | 0.00 | 24 | 1022.2 |